THOR ABLESTAR DEB, 210

Orbit data source: Space-Track

THOR ABLESTAR DEB, 210 is space debris in LEO originally from a launch on Thu, 29 Jun 1961 UTC launched from the Air Force Eastern Test Range (AFETR). Debris objects in space refer to the collection of defunct objects orbiting the Earth. Examples of debris include non-operational satellites, rocket bodies, and fragments generated from explosions, collisions, or faulty payload assembly.

Loading next visibility...
Identifier
210, 1961-015BE
Orbit
LEO
Country
Flag of USUS
Related business
Manufacturer
Unknown
Mission
Spacecraft
Bus & Motor
Unknown
Mass
Unknown
Launch date (UTC)
1961-06-29 (65 years ago)
Launch vehicle
Unknown
Launch site
Air Force Eastern Test Range (AFETR)
Object type
Payload
Rocket body
Debris
Shape & HBR
Unknown shape, 0.2 m
Radar Cross Section
Medium (>0.1 m² and <1 m²)

Expand to show TLE details & history
Last TLE update: 22 hours ago

TLE from 22 hours ago
0 THOR ABLESTAR DEB
1 00210U 61015BE  26207.58856298  .00000376  00000-0  36990-3 0  9990
2 00210  66.4563 268.2822 0053786 285.6396  73.8748 13.89120173270879
Epoch: 2026-07-26T14:07Z
TLE epoch observation values (Epoch: 2026-07-26T14:07:31.841Z)
Latitude
Longitude
112.1152°
Altitude
923.038 km
Speed
7.396 km/s
True Right ascension
17h 53m 07s
True Declination
0° 00' 00"
Sunlit
Object was in full shadow at epoch
Visualization orbit readout
Latitude
Unknown
Longitude
Unknown
Altitude
Unknown
Speed
Unknown
Apparent Right ascension
Unknown
Apparent Declination
Unknown
Sunlit
N/A
Visualization observer readout
Local Sidereal Time
01:10:28
Azimuth
Unknown
Elevation
Unknown
Doppler factor
Unknown
Orbital elements
Apogee altitude
969.458 km
Perigee altitude
890.842 km
Semi-major axis
7,308.287 km
Eccentricity
0.00538
Inclination
66.4563°
RAAN
268.2822°
Arg. of periapsis
285.6396°
True anomaly
74.46799°
Mean anomaly
73.8748°
Eccentric anomaly
74.17129°
Mean motion
3.47392 °/min
Orbital period
103.63 mins
BSTAR
0.0003699

Documentation

Showing up to 5 results
|